World > North America > United States > New Jersey

West Milford, New Jersey Regional Weather

Lat: 41.11N, Lon: 74.4W
Wx Zone: NJZ002Web Search
West Milford Weather Warning NWS WEATHER ALERT FOR THE WEST MILFORD, NJ AREA - Issued: 453 PM EDT Tue Sep 29 2020 West Milford Weather Warning  

Helpful Tip: Type the letters wx in the search engine next time you need to find us.

Feedback
West Milford Weather Map
UTC Time: 9/30/2020, 06:12
Your Time:

West Milford, NJ Regional Weather

Expires:202009300600;;578086
ASUS41 KPHI 300512
RWRPHI

REGIONAL WEATHER ROUNDUP
NATIONAL WEATHER SERVICE MOUNT HOLLY NJ
100 AM EDT WED SEP 30 2020

NOTE:  "FAIR" INDICATES FEW OR NO CLOUDS BELOW 12,000 FEET WITH NO
SIGNIFICANT WEATHER AND/OR OBSTRUCTIONS TO VISIBILITY.

 * = STATION DOES NOT REPORT PRECIPITATION (E.G. RAIN, SNOW, ETC.) 
        OR FOG.


NJZ001>014-300600-
NORTHERN NEW JERSEY
  
CITY           SKY/WX    TMP DP  RH WIND       PRES   REMARKS
SUSSEX         RAIN      71  69  93 VRB5      29.55F FOG              
ANDOVER*         N/A     71  69  93 S5        29.56F                  
MORRISTOWN     LGT RAIN  72  70  94 S8        29.57                   
NEWARK         LGT RAIN  72  70  93 S12       29.58F                  
TETERBORO      LGT RAIN  72  70  93 S13G20    29.57F FOG              
CALDWELL       LGT RAIN  74  70  87 S12G20    29.58F                  
SOMERVILLE     RAIN      71  70  96 S8        29.55F FOG              
ALLAIRE*       LGT RAIN  71 N/A N/A S13G22    29.60F                  
TOMS RIVER*    CLOUDY    72  70  93 S15G25    29.58F                  

$$

SKY/WX - Weather  TMP - Temperature  DP - Dew Point  RH - Relative Humidity
WIND - Wind Direction/Speed PRES - Barometric Pressure VSB - Visibility
WCI - Wind Chill Index E13G22 Wind - East Wind 13 mph/Gusts of 22 mph